Year,Month,Day,Hour,Minute,Value (Times are PST for temperature in C)
2011,08,11,00,00,13.60
2011,08,11,00,01,13.70
2011,08,11,00,02,13.70
2011,08,11,00,03,13.70
2011,08,11,00,04,13.70
2011,08,11,00,05,13.70
2011,08,11,00,06,13.70
2011,08,11,00,07,13.70
2011,08,11,00,08,13.70
2011,08,11,00,09,13.70
2011,08,11,00,10,13.70
2011,08,11,00,11,13.70
2011,08,11,00,12,13.70
2011,08,11,00,13,13.70
2011,08,11,00,14,13.70
2011,08,11,00,15,13.70
2011,08,11,00,16,13.70
2011,08,11,00,17,13.70
2011,08,11,00,18,13.70
2011,08,11,00,19,13.70
2011,08,11,00,20,13.70
2011,08,11,00,21,13.70
2011,08,11,00,22,13.70
2011,08,11,00,23,13.60
2011,08,11,00,24,13.60
2011,08,11,00,25,13.60
2011,08,11,00,26,13.60
2011,08,11,00,27,13.60
2011,08,11,00,28,13.60
2011,08,11,00,29,13.60
2011,08,11,00,30,13.60
2011,08,11,00,31,13.60
2011,08,11,00,32,13.60
2011,08,11,00,33,13.50
2011,08,11,00,34,13.50
2011,08,11,00,35,13.50
2011,08,11,00,36,13.50
2011,08,11,00,37,13.50
2011,08,11,00,38,13.50
2011,08,11,00,39,13.50
2011,08,11,00,40,13.50
2011,08,11,00,41,13.50
2011,08,11,00,42,13.50
2011,08,11,00,43,13.40
2011,08,11,00,44,13.40
2011,08,11,00,45,13.50
2011,08,11,00,46,13.40
2011,08,11,00,47,13.40
2011,08,11,00,48,13.40
2011,08,11,00,49,13.40
2011,08,11,00,50,13.40
2011,08,11,00,51,13.40
2011,08,11,00,52,13.40
2011,08,11,00,53,13.40
2011,08,11,00,54,13.40
2011,08,11,00,55,13.40
2011,08,11,00,56,13.40
2011,08,11,00,57,13.40
2011,08,11,00,58,13.40
2011,08,11,00,59,13.40
2011,08,11,01,00,13.40
2011,08,11,01,01,13.40
2011,08,11,01,02,13.40
2011,08,11,01,03,13.30
2011,08,11,01,04,13.30
2011,08,11,01,05,13.30
2011,08,11,01,06,13.30
2011,08,11,01,07,13.30
2011,08,11,01,08,13.30
2011,08,11,01,09,13.30
2011,08,11,01,10,13.30
2011,08,11,01,11,13.30
2011,08,11,01,12,13.30
2011,08,11,01,13,13.30
2011,08,11,01,14,13.20
2011,08,11,01,15,13.20
2011,08,11,01,16,13.20
2011,08,11,01,17,13.20
2011,08,11,01,18,13.20
2011,08,11,01,19,13.20
2011,08,11,01,20,13.10
2011,08,11,01,21,13.10
2011,08,11,01,22,13.10
2011,08,11,01,23,13.10
2011,08,11,01,24,13.00
2011,08,11,01,25,13.00
2011,08,11,01,26,13.00
2011,08,11,01,27,12.90
2011,08,11,01,28,12.90
2011,08,11,01,29,12.90
2011,08,11,01,30,12.80
2011,08,11,01,31,12.80
2011,08,11,01,32,12.70
2011,08,11,01,33,12.70
2011,08,11,01,34,12.60
2011,08,11,01,35,12.60
2011,08,11,01,36,12.50
2011,08,11,01,37,12.50
2011,08,11,01,38,12.40
2011,08,11,01,39,12.40
2011,08,11,01,40,12.40
2011,08,11,01,41,12.40
2011,08,11,01,42,12.40
2011,08,11,01,43,12.30
2011,08,11,01,44,12.30
2011,08,11,01,45,12.30
2011,08,11,01,46,12.30
2011,08,11,01,47,12.30
2011,08,11,01,48,12.20
2011,08,11,01,49,12.20
2011,08,11,01,50,12.20
2011,08,11,01,51,12.20
2011,08,11,01,52,12.20
2011,08,11,01,53,12.10
2011,08,11,01,54,12.10
2011,08,11,01,55,12.10
2011,08,11,01,56,12.10
2011,08,11,01,57,12.10
2011,08,11,01,58,12.10
2011,08,11,01,59,12.00
2011,08,11,02,00,12.00
2011,08,11,02,01,12.00
2011,08,11,02,02,12.00
2011,08,11,02,03,12.00
2011,08,11,02,04,12.00
2011,08,11,02,05,12.00
2011,08,11,02,06,12.00
2011,08,11,02,07,12.00
2011,08,11,02,08,12.00
2011,08,11,02,09,11.90
2011,08,11,02,10,11.90
2011,08,11,02,11,11.90
2011,08,11,02,12,11.90
2011,08,11,02,13,11.90
2011,08,11,02,14,12.00
2011,08,11,02,15,12.00
2011,08,11,02,16,12.00
2011,08,11,02,17,12.10
2011,08,11,02,18,12.10
2011,08,11,02,19,12.10
2011,08,11,02,20,12.10
2011,08,11,02,21,12.10
2011,08,11,02,22,12.10
2011,08,11,02,23,12.20
2011,08,11,02,24,12.20
2011,08,11,02,25,12.20
2011,08,11,02,26,12.20
2011,08,11,02,27,12.20
2011,08,11,02,28,12.20
2011,08,11,02,29,12.20
2011,08,11,02,30,12.30
2011,08,11,02,31,12.30
2011,08,11,02,32,12.30
2011,08,11,02,33,12.30
2011,08,11,02,34,12.30
2011,08,11,02,35,12.30
2011,08,11,02,36,12.30
2011,08,11,02,37,12.30
2011,08,11,02,38,12.30
2011,08,11,02,39,12.30
2011,08,11,02,40,12.30
2011,08,11,02,41,12.30
2011,08,11,02,42,12.30
2011,08,11,02,43,12.30
2011,08,11,02,44,12.20
2011,08,11,02,45,12.20
2011,08,11,02,46,12.20
2011,08,11,02,47,12.20
2011,08,11,02,48,12.20
2011,08,11,02,49,12.20
2011,08,11,02,50,12.20
2011,08,11,02,51,12.20
2011,08,11,02,52,12.20
2011,08,11,02,53,12.20
2011,08,11,02,54,12.20
2011,08,11,02,55,12.20
2011,08,11,02,56,12.20
2011,08,11,02,57,12.20
2011,08,11,02,58,12.20
2011,08,11,02,59,12.20
2011,08,11,03,00,12.20
2011,08,11,03,01,12.20
2011,08,11,03,02,12.20
2011,08,11,03,03,12.20
2011,08,11,03,04,12.20
2011,08,11,03,05,12.20
2011,08,11,03,06,12.20
2011,08,11,03,07,12.20
2011,08,11,03,08,12.20
2011,08,11,03,09,12.20
2011,08,11,03,10,12.20
2011,08,11,03,11,12.20
2011,08,11,03,12,12.20
2011,08,11,03,13,12.20
2011,08,11,03,14,12.10
2011,08,11,03,15,12.10
2011,08,11,03,16,12.10
2011,08,11,03,17,12.10
2011,08,11,03,18,12.10
2011,08,11,03,19,12.10
2011,08,11,03,20,12.10
2011,08,11,03,21,12.10
2011,08,11,03,22,12.10
2011,08,11,03,23,12.10
2011,08,11,03,24,12.00
2011,08,11,03,25,12.00
2011,08,11,03,26,12.00
2011,08,11,03,27,12.00
2011,08,11,03,28,12.00
2011,08,11,03,29,11.90
2011,08,11,03,30,11.90
2011,08,11,03,31,11.90
2011,08,11,03,32,11.90
2011,08,11,03,33,11.80
2011,08,11,03,34,11.80
2011,08,11,03,35,11.80
2011,08,11,03,36,11.70
2011,08,11,03,37,11.70
2011,08,11,03,38,11.70
2011,08,11,03,39,11.70
2011,08,11,03,40,11.70
2011,08,11,03,41,11.60
2011,08,11,03,42,11.60
2011,08,11,03,43,11.60
2011,08,11,03,44,11.60
2011,08,11,03,45,11.50
2011,08,11,03,46,11.50
2011,08,11,03,47,11.40
2011,08,11,03,48,11.40
2011,08,11,03,49,11.40
2011,08,11,03,50,11.40
2011,08,11,03,51,11.40
2011,08,11,03,52,11.40
2011,08,11,03,53,11.40
2011,08,11,03,54,11.30
2011,08,11,03,55,11.30
2011,08,11,03,56,11.30
2011,08,11,03,57,11.30
2011,08,11,03,58,11.30
2011,08,11,03,59,11.30
2011,08,11,04,00,11.30
2011,08,11,04,01,11.30
2011,08,11,04,02,11.20
2011,08,11,04,03,11.20
2011,08,11,04,04,11.20
2011,08,11,04,05,11.20
2011,08,11,04,06,11.20
2011,08,11,04,07,11.20
2011,08,11,04,08,11.20
2011,08,11,04,09,11.20
2011,08,11,04,10,11.20
2011,08,11,04,11,11.20
2011,08,11,04,12,11.20
2011,08,11,04,13,11.20
2011,08,11,04,14,11.20
2011,08,11,04,15,11.20
2011,08,11,04,16,11.20
2011,08,11,04,17,11.20
2011,08,11,04,18,11.20
2011,08,11,04,19,11.20
2011,08,11,04,20,11.20
2011,08,11,04,21,11.20
2011,08,11,04,22,11.20
2011,08,11,04,23,11.20
2011,08,11,04,24,11.20
2011,08,11,04,25,11.20
2011,08,11,04,26,11.20
2011,08,11,04,27,11.20
2011,08,11,04,28,11.30
2011,08,11,04,29,11.30
2011,08,11,04,30,11.30
2011,08,11,04,31,11.30
2011,08,11,04,32,11.30
2011,08,11,04,33,11.30
2011,08,11,04,34,11.40
2011,08,11,04,35,11.40
2011,08,11,04,36,11.40
2011,08,11,04,37,11.40
2011,08,11,04,38,11.40
2011,08,11,04,39,11.40
2011,08,11,04,40,11.40
2011,08,11,04,41,11.40
2011,08,11,04,42,11.40
2011,08,11,04,43,11.40
2011,08,11,04,44,11.40
2011,08,11,04,45,11.40
2011,08,11,04,46,11.40
2011,08,11,04,47,11.40
2011,08,11,04,48,11.40
2011,08,11,04,49,11.40
2011,08,11,04,50,11.40
2011,08,11,04,51,11.40
2011,08,11,04,52,11.40
2011,08,11,04,53,11.40
2011,08,11,04,54,11.40
2011,08,11,04,55,11.40
2011,08,11,04,56,11.40
2011,08,11,04,57,11.40
2011,08,11,04,58,11.40
2011,08,11,04,59,11.40
2011,08,11,05,00,11.40
2011,08,11,05,01,11.40
2011,08,11,05,02,11.40
2011,08,11,05,03,11.40
2011,08,11,05,04,11.40
2011,08,11,05,05,11.40
2011,08,11,05,06,11.40
2011,08,11,05,07,11.40
2011,08,11,05,08,11.40
2011,08,11,05,09,11.40
2011,08,11,05,10,11.40
2011,08,11,05,11,11.50
2011,08,11,05,12,11.50
2011,08,11,05,13,11.50
2011,08,11,05,14,11.50
2011,08,11,05,15,11.50
2011,08,11,05,16,11.50
2011,08,11,05,17,11.50
2011,08,11,05,18,11.50
2011,08,11,05,19,11.50
2011,08,11,05,20,11.50
2011,08,11,05,21,11.50
2011,08,11,05,22,11.50
2011,08,11,05,23,11.50
2011,08,11,05,24,11.50
2011,08,11,05,25,11.50
2011,08,11,05,26,11.50
2011,08,11,05,27,11.40
2011,08,11,05,28,11.40
2011,08,11,05,29,11.40
2011,08,11,05,30,11.40
2011,08,11,05,31,11.40
2011,08,11,05,32,11.40
2011,08,11,05,33,11.40
2011,08,11,05,34,11.40
2011,08,11,05,35,11.30
2011,08,11,05,36,11.30
2011,08,11,05,37,11.30
2011,08,11,05,38,11.30
2011,08,11,05,39,11.30
2011,08,11,05,40,11.30
2011,08,11,05,41,11.30
2011,08,11,05,42,11.30
2011,08,11,05,43,11.20
2011,08,11,05,44,11.20
2011,08,11,05,45,11.20
2011,08,11,05,46,11.20
2011,08,11,05,47,11.20
2011,08,11,05,48,11.20
2011,08,11,05,49,11.20
2011,08,11,05,50,11.20
2011,08,11,05,51,11.20
2011,08,11,05,52,11.10
2011,08,11,05,53,11.10
2011,08,11,05,54,11.10
2011,08,11,05,55,11.10
2011,08,11,05,56,11.10
2011,08,11,05,57,11.10
2011,08,11,05,58,11.10
2011,08,11,05,59,11.10
2011,08,11,06,00,11.10
2011,08,11,06,01,11.10
2011,08,11,06,02,11.10
2011,08,11,06,03,11.10
2011,08,11,06,04,11.00
2011,08,11,06,05,11.00
2011,08,11,06,06,11.00
2011,08,11,06,07,11.00
2011,08,11,06,08,11.00
2011,08,11,06,09,11.00
2011,08,11,06,10,11.00
2011,08,11,06,11,11.00
2011,08,11,06,12,11.00
2011,08,11,06,13,11.10
2011,08,11,06,14,11.10
2011,08,11,06,15,11.10
2011,08,11,06,16,11.10
2011,08,11,06,17,11.10
2011,08,11,06,18,11.10
2011,08,11,06,19,11.10
2011,08,11,06,20,11.10
2011,08,11,06,21,11.10
2011,08,11,06,22,11.10
2011,08,11,06,23,11.10
2011,08,11,06,24,11.10
2011,08,11,06,25,11.10
2011,08,11,06,26,11.10
2011,08,11,06,27,11.10
2011,08,11,06,28,11.20
2011,08,11,06,29,11.20
2011,08,11,06,30,11.20
2011,08,11,06,31,11.20
2011,08,11,06,32,11.20
2011,08,11,06,33,11.20
2011,08,11,06,34,11.20
2011,08,11,06,35,11.20
2011,08,11,06,36,11.30
2011,08,11,06,37,11.30
2011,08,11,06,38,11.30
2011,08,11,06,39,11.30
2011,08,11,06,40,11.30
2011,08,11,06,41,11.30
2011,08,11,06,42,11.30
2011,08,11,06,43,11.30
2011,08,11,06,44,11.40
2011,08,11,06,45,11.40
2011,08,11,06,46,11.40
2011,08,11,06,47,11.40
2011,08,11,06,48,11.40
2011,08,11,06,49,11.50
2011,08,11,06,50,11.50
2011,08,11,06,51,11.50
2011,08,11,06,52,11.60
2011,08,11,06,53,11.60
2011,08,11,06,54,11.60
2011,08,11,06,55,11.60
2011,08,11,06,56,11.60
2011,08,11,06,57,11.70
2011,08,11,06,58,11.70
2011,08,11,06,59,11.70
2011,08,11,07,00,11.70
2011,08,11,07,01,11.70
2011,08,11,07,02,11.70
2011,08,11,07,03,11.70
2011,08,11,07,04,11.80
2011,08,11,07,05,11.80
2011,08,11,07,06,11.80
2011,08,11,07,07,11.80
2011,08,11,07,08,11.80
2011,08,11,07,09,11.80
2011,08,11,07,10,11.80
2011,08,11,07,11,11.80
2011,08,11,07,12,11.90
2011,08,11,07,13,11.90
2011,08,11,07,14,11.90
2011,08,11,07,15,11.90
2011,08,11,07,16,11.90
2011,08,11,07,17,11.90
2011,08,11,07,18,11.90
2011,08,11,07,19,11.90
2011,08,11,07,20,12.00
2011,08,11,07,21,12.00
2011,08,11,07,22,12.00
2011,08,11,07,23,12.00
2011,08,11,07,24,12.00
2011,08,11,07,25,12.00
2011,08,11,07,26,12.00
2011,08,11,07,27,12.10
2011,08,11,07,28,12.00
2011,08,11,07,29,12.00
2011,08,11,07,30,12.00
2011,08,11,07,31,12.10
2011,08,11,07,32,12.10
2011,08,11,07,33,12.10
2011,08,11,07,34,12.10
2011,08,11,07,35,12.00
2011,08,11,07,36,12.00
2011,08,11,07,37,12.10
2011,08,11,07,38,12.10
2011,08,11,07,39,12.10
2011,08,11,07,40,12.00
2011,08,11,07,41,12.00
2011,08,11,07,42,12.00
2011,08,11,07,43,12.00
2011,08,11,07,44,12.10
2011,08,11,07,45,12.00
2011,08,11,07,46,12.10
2011,08,11,07,47,12.10
2011,08,11,07,48,12.10
2011,08,11,07,49,12.10
2011,08,11,07,50,12.10
2011,08,11,07,51,12.10
2011,08,11,07,52,12.10
2011,08,11,07,53,12.10
2011,08,11,07,54,12.10
2011,08,11,07,55,12.10
2011,08,11,07,56,12.10
2011,08,11,07,57,12.10
2011,08,11,07,58,12.20
2011,08,11,07,59,12.20
2011,08,11,08,00,12.20
2011,08,11,08,01,12.20
2011,08,11,08,02,12.30
2011,08,11,08,03,12.30
2011,08,11,08,04,12.40
2011,08,11,08,05,12.40
2011,08,11,08,06,12.50
2011,08,11,08,07,12.60
2011,08,11,08,08,12.70
2011,08,11,08,09,12.80
2011,08,11,08,10,12.80
2011,08,11,08,11,12.90
2011,08,11,08,12,13.00
2011,08,11,08,13,13.10
2011,08,11,08,14,13.20
2011,08,11,08,15,13.20
2011,08,11,08,16,13.30
2011,08,11,08,17,13.40
2011,08,11,08,18,13.40
2011,08,11,08,19,13.50
2011,08,11,08,20,13.60
2011,08,11,08,21,13.70
2011,08,11,08,22,13.70
2011,08,11,08,23,13.80
2011,08,11,08,24,13.90
2011,08,11,08,25,13.90
2011,08,11,08,26,14.00
2011,08,11,08,27,14.10
2011,08,11,08,28,14.20
2011,08,11,08,29,14.30
2011,08,11,08,30,14.30
2011,08,11,08,31,14.40
2011,08,11,08,32,14.40
2011,08,11,08,33,14.50
2011,08,11,08,34,14.60
2011,08,11,08,35,14.60
2011,08,11,08,36,14.70
2011,08,11,08,37,14.70
2011,08,11,15,46,19.70
2011,08,11,15,47,19.70
2011,08,11,15,48,19.70
2011,08,11,15,49,19.70
2011,08,11,15,50,19.70
2011,08,11,15,51,19.70
2011,08,11,15,52,19.70
2011,08,11,15,53,19.70
2011,08,11,15,54,19.70
2011,08,11,15,55,19.70
2011,08,11,15,56,19.80
2011,08,11,15,57,19.80
2011,08,11,15,58,19.80
2011,08,11,15,59,19.80
2011,08,11,16,00,19.80
2011,08,11,16,01,19.80
2011,08,11,16,02,19.80
2011,08,11,16,03,19.80
2011,08,11,16,04,19.80
2011,08,11,16,05,19.80
2011,08,11,16,06,19.80
2011,08,11,16,07,19.80
2011,08,11,16,08,19.70
2011,08,11,16,09,19.70
2011,08,11,16,10,19.70
2011,08,11,16,11,19.70
2011,08,11,16,12,19.70
2011,08,11,16,13,19.70
2011,08,11,16,14,19.70
2011,08,11,16,15,19.70
2011,08,11,16,16,19.70
2011,08,11,16,17,19.60
2011,08,11,16,18,19.70
2011,08,11,16,19,19.70
2011,08,11,16,20,19.70
2011,08,11,16,21,19.70
2011,08,11,16,22,19.70
2011,08,11,16,23,19.70
2011,08,11,16,24,19.70
2011,08,11,16,25,19.80
2011,08,11,16,26,19.80
2011,08,11,16,27,19.80
2011,08,11,16,28,19.70
2011,08,11,16,29,19.70
2011,08,11,16,30,19.70
2011,08,11,16,31,19.70
2011,08,11,16,32,19.70
2011,08,11,16,33,19.70
2011,08,11,16,34,19.80
2011,08,11,16,35,19.80
2011,08,11,16,36,19.80
2011,08,11,16,37,19.80
2011,08,11,16,38,19.80
2011,08,11,16,39,19.80
2011,08,11,16,40,19.80
2011,08,11,16,41,19.80
2011,08,11,16,42,19.70
2011,08,11,16,43,19.70
2011,08,11,16,44,19.70
2011,08,11,16,45,19.70
2011,08,11,16,46,19.70
2011,08,11,16,47,19.70
2011,08,11,16,48,19.70
2011,08,11,16,49,19.70
2011,08,11,16,50,19.70
2011,08,11,16,51,19.70
2011,08,11,16,52,19.70
2011,08,11,16,53,19.80
2011,08,11,16,54,19.80
2011,08,11,16,55,19.80
2011,08,11,16,56,19.80
2011,08,11,16,57,19.80
2011,08,11,16,58,19.80
2011,08,11,16,59,19.80
2011,08,11,17,00,19.80
2011,08,11,17,01,19.80
2011,08,11,17,02,19.80
2011,08,11,17,03,19.90
2011,08,11,17,04,19.90
2011,08,11,17,05,19.90
2011,08,11,17,06,20.00
2011,08,11,17,07,20.00
2011,08,11,17,08,20.10
2011,08,11,17,09,20.10
2011,08,11,17,10,20.10
2011,08,11,17,11,20.10
2011,08,11,17,12,20.10
2011,08,11,17,13,20.10
2011,08,11,17,14,20.10
2011,08,11,17,15,20.10
2011,08,11,17,16,20.10
2011,08,11,17,17,20.10
2011,08,11,17,18,20.10
2011,08,11,17,19,20.10
2011,08,11,17,20,20.10
2011,08,11,17,21,20.00
2011,08,11,17,22,20.00
2011,08,11,17,23,20.00
2011,08,11,17,24,20.00
2011,08,11,17,25,20.00
2011,08,11,17,26,20.10
2011,08,11,17,27,20.10
2011,08,11,17,28,20.10
2011,08,11,17,29,20.20
2011,08,11,17,30,20.20
2011,08,11,17,31,20.20
2011,08,11,17,32,20.20
2011,08,11,17,33,20.10
2011,08,11,17,34,20.10
2011,08,11,17,35,20.10
2011,08,11,17,36,20.10
2011,08,11,17,37,20.10
2011,08,11,17,38,20.10
2011,08,11,17,39,20.10
2011,08,11,17,40,20.00
2011,08,11,17,41,20.00
2011,08,11,17,42,20.00
2011,08,11,17,43,20.00
2011,08,11,17,44,19.90
2011,08,11,17,45,19.90
2011,08,11,17,46,19.90
2011,08,11,17,47,19.90
2011,08,11,17,48,19.90
2011,08,11,17,49,19.90
2011,08,11,17,50,20.00
2011,08,11,17,51,20.00
2011,08,11,17,52,20.00
2011,08,11,17,53,20.00
2011,08,11,17,54,20.00
2011,08,11,17,55,20.10
2011,08,11,17,56,20.10
2011,08,11,17,57,20.00
2011,08,11,17,58,20.00
2011,08,11,17,59,20.00
2011,08,11,18,00,20.00
2011,08,11,18,01,20.00
2011,08,11,18,02,19.90
2011,08,11,18,03,19.90
2011,08,11,18,04,19.90
2011,08,11,18,05,19.90
2011,08,11,18,06,19.90
2011,08,11,18,07,19.80
2011,08,11,18,08,19.80
2011,08,11,18,09,19.80
2011,08,11,18,10,19.80
2011,08,11,18,11,19.80
2011,08,11,18,12,19.80
2011,08,11,18,13,19.80
2011,08,11,18,14,19.80
2011,08,11,18,15,19.80
2011,08,11,18,16,19.90
2011,08,11,18,17,19.90
2011,08,11,18,18,19.90
2011,08,11,18,19,19.90
2011,08,11,18,20,19.90
2011,08,11,18,21,19.80
2011,08,11,18,22,19.80
2011,08,11,18,23,19.80
2011,08,11,18,24,19.80
2011,08,11,18,25,19.80
2011,08,11,18,26,19.80
2011,08,11,18,27,19.80
2011,08,11,18,28,19.70
2011,08,11,18,29,19.70
2011,08,11,18,30,19.70
2011,08,11,18,31,19.70
2011,08,11,18,32,19.70
2011,08,11,18,33,19.70
2011,08,11,18,34,19.70
2011,08,11,18,35,19.70
2011,08,11,18,36,19.70
2011,08,11,18,37,19.80
2011,08,11,18,38,19.70
2011,08,11,18,39,19.70
2011,08,11,18,40,19.70
2011,08,11,18,41,19.70
2011,08,11,18,42,19.70
2011,08,11,18,43,19.70
2011,08,11,18,44,19.70
2011,08,11,18,45,19.70
2011,08,11,18,46,19.60
2011,08,11,18,47,19.60
2011,08,11,18,48,19.60
2011,08,11,18,49,19.60
2011,08,11,18,50,19.60
2011,08,11,18,51,19.60
2011,08,11,18,52,19.60
2011,08,11,18,53,19.60
2011,08,11,18,54,19.60
2011,08,11,18,55,19.60
2011,08,11,18,56,19.60
2011,08,11,18,57,19.60
2011,08,11,18,58,19.60
2011,08,11,18,59,19.60
2011,08,11,19,00,19.60
2011,08,11,19,01,19.60
2011,08,11,19,02,19.60
2011,08,11,19,03,19.60
2011,08,11,19,04,19.60
2011,08,11,19,05,19.60
2011,08,11,19,06,19.60
2011,08,11,19,07,19.60
2011,08,11,19,08,19.60
2011,08,11,19,09,19.60
2011,08,11,19,10,19.60
2011,08,11,19,11,19.60
2011,08,11,19,12,19.60
2011,08,11,19,13,19.60
2011,08,11,19,14,19.70
2011,08,11,19,15,19.70
2011,08,11,19,16,19.70
2011,08,11,19,17,19.70
2011,08,11,19,18,19.80
2011,08,11,19,19,19.70
2011,08,11,19,20,19.70
2011,08,11,19,21,19.70
2011,08,11,19,22,19.70
2011,08,11,19,23,19.60
2011,08,11,19,24,19.60
2011,08,11,19,25,19.50
2011,08,11,19,26,19.40
2011,08,11,19,27,19.40
2011,08,11,19,28,19.30
2011,08,11,19,29,19.30
2011,08,11,19,30,19.30
2011,08,11,19,31,19.20
2011,08,11,19,32,19.20
2011,08,11,19,33,19.10
2011,08,11,19,34,19.10
2011,08,11,19,35,19.00
2011,08,11,19,36,19.00
2011,08,11,19,37,19.00
2011,08,11,19,38,18.90
2011,08,11,19,39,18.90
2011,08,11,19,40,18.80
2011,08,11,19,41,18.80
2011,08,11,19,42,18.80
2011,08,11,19,43,18.80
2011,08,11,19,44,18.80
2011,08,11,19,45,18.70
2011,08,11,19,46,18.70
2011,08,11,19,47,18.70
2011,08,11,19,48,18.70
2011,08,11,19,49,18.70
2011,08,11,19,50,18.60
2011,08,11,19,51,18.60
2011,08,11,19,52,18.60
2011,08,11,19,53,18.60
2011,08,11,19,54,18.60
2011,08,11,19,55,18.50
2011,08,11,19,56,18.50
2011,08,11,19,57,18.40
2011,08,11,19,58,18.40
2011,08,11,19,59,18.40
2011,08,11,20,00,18.40
2011,08,11,20,01,18.40
2011,08,11,20,02,18.30
2011,08,11,20,03,18.30
2011,08,11,20,04,18.30
2011,08,11,20,05,18.30
2011,08,11,20,06,18.20
2011,08,11,20,07,18.20
2011,08,11,20,08,18.20
2011,08,11,20,09,18.10
2011,08,11,20,10,18.10
2011,08,11,20,11,18.10
2011,08,11,20,12,18.00
2011,08,11,20,13,18.00
2011,08,11,20,14,17.90
2011,08,11,20,15,17.90
2011,08,11,20,16,17.90
2011,08,11,20,17,17.80
2011,08,11,20,18,17.80
2011,08,11,20,19,17.80
2011,08,11,20,20,17.80
2011,08,11,20,21,17.70
2011,08,11,20,22,17.70
2011,08,11,20,23,17.70
2011,08,11,20,24,17.60
2011,08,11,20,25,17.60
2011,08,11,20,26,17.60
2011,08,11,20,27,17.60
2011,08,11,20,28,17.60
2011,08,11,20,29,17.50
2011,08,11,20,30,17.50
2011,08,11,20,31,17.40
2011,08,11,20,32,17.40
2011,08,11,20,33,17.40
2011,08,11,20,34,17.40
2011,08,11,20,35,17.30
2011,08,11,20,36,17.30
2011,08,11,20,37,17.30
2011,08,11,20,38,17.20
2011,08,11,20,39,17.20
2011,08,11,20,40,17.10
2011,08,11,20,41,17.10
2011,08,11,20,42,17.10
2011,08,11,20,43,17.00
2011,08,11,20,44,17.00
2011,08,11,20,45,16.90
2011,08,11,20,46,16.90
2011,08,11,20,47,16.80
2011,08,11,20,48,16.80
2011,08,11,20,49,16.80
2011,08,11,20,50,16.70
2011,08,11,20,51,16.70
2011,08,11,20,52,16.60
2011,08,11,20,53,16.60
2011,08,11,20,54,16.50
2011,08,11,20,55,16.50
2011,08,11,20,56,16.40
2011,08,11,20,57,16.40
2011,08,11,20,58,16.30
2011,08,11,20,59,16.30
2011,08,11,21,00,16.30
2011,08,11,21,01,16.30
2011,08,11,21,02,16.20
2011,08,11,21,03,16.20
2011,08,11,21,04,16.20
2011,08,11,21,05,16.10
2011,08,11,21,06,16.10
2011,08,11,21,07,16.10
2011,08,11,21,08,16.10
2011,08,11,21,09,16.00
2011,08,11,21,10,16.00
2011,08,11,21,11,16.00
2011,08,11,21,12,15.90
2011,08,11,21,13,15.90
2011,08,11,21,14,15.90
2011,08,11,21,15,15.90
2011,08,11,21,16,15.80
2011,08,11,21,17,15.80
2011,08,11,21,18,15.80
2011,08,11,21,19,15.70
2011,08,11,21,20,15.70
2011,08,11,21,21,15.70
2011,08,11,21,22,15.70
2011,08,11,21,23,15.60
2011,08,11,21,24,15.60
2011,08,11,21,25,15.60
2011,08,11,21,26,15.60
2011,08,11,21,27,15.50
2011,08,11,21,28,15.50
2011,08,11,21,29,15.50
2011,08,11,21,30,15.50
2011,08,11,21,31,15.40
2011,08,11,21,32,15.40
2011,08,11,21,33,15.40
2011,08,11,21,34,15.40
2011,08,11,21,35,15.40
2011,08,11,21,36,15.40
2011,08,11,21,37,15.40
2011,08,11,21,38,15.30
2011,08,11,21,39,15.30
2011,08,11,21,40,15.30
2011,08,11,21,41,15.30
2011,08,11,21,42,15.30
2011,08,11,21,43,15.30
2011,08,11,21,44,15.20
2011,08,11,21,45,15.20
2011,08,11,21,46,15.20
2011,08,11,21,47,15.20
2011,08,11,21,48,15.10
2011,08,11,21,49,15.10
2011,08,11,21,50,15.10
2011,08,11,21,51,15.10
2011,08,11,21,52,15.00
2011,08,11,21,53,15.00
2011,08,11,21,54,15.00
2011,08,11,21,55,15.00
2011,08,11,21,56,14.90
2011,08,11,21,57,14.90
2011,08,11,21,58,14.90
2011,08,11,21,59,14.90
2011,08,11,22,00,14.90
2011,08,11,22,01,14.90
2011,08,11,22,02,14.90
2011,08,11,22,03,14.90
2011,08,11,22,04,14.90
2011,08,11,22,05,14.90
2011,08,11,22,06,14.90
2011,08,11,22,07,14.90
2011,08,11,22,08,14.90
2011,08,11,22,09,14.90
2011,08,11,22,10,14.90
2011,08,11,22,11,14.90
2011,08,11,22,12,14.90
2011,08,11,22,13,14.90
2011,08,11,22,14,14.90
2011,08,11,22,15,14.90
2011,08,11,22,16,14.90
2011,08,11,22,17,14.90
2011,08,11,22,18,14.90
2011,08,11,22,19,14.90
2011,08,11,22,20,15.00
2011,08,11,22,21,14.90
2011,08,11,22,22,14.90
2011,08,11,22,23,14.90
2011,08,11,22,24,14.90
2011,08,11,22,25,14.90
2011,08,11,22,26,14.90
2011,08,11,22,27,14.90
2011,08,11,22,28,14.90
2011,08,11,22,29,14.90
2011,08,11,22,30,14.90
2011,08,11,22,31,14.80
2011,08,11,22,32,14.80
2011,08,11,22,33,14.80
2011,08,11,22,34,14.80
2011,08,11,22,35,14.80
2011,08,11,22,36,14.80
2011,08,11,22,37,14.80
2011,08,11,22,38,14.80
2011,08,11,22,39,14.80
2011,08,11,22,40,14.80
2011,08,11,22,41,14.80
2011,08,11,22,42,14.90
2011,08,11,22,43,14.90
2011,08,11,22,44,14.90
2011,08,11,22,45,14.90
2011,08,11,22,46,14.90
2011,08,11,22,47,14.90
2011,08,11,22,48,14.90
2011,08,11,22,49,14.90
2011,08,11,22,50,14.90
2011,08,11,22,51,14.80
2011,08,11,22,52,14.80
2011,08,11,22,53,14.80
2011,08,11,22,54,14.80
2011,08,11,22,55,14.80
2011,08,11,22,56,14.80
2011,08,11,22,57,14.80
2011,08,11,22,58,14.70
2011,08,11,22,59,14.70
2011,08,11,23,00,14.70
2011,08,11,23,01,14.60
2011,08,11,23,02,14.60
2011,08,11,23,03,14.60
2011,08,11,23,04,14.50
2011,08,11,23,05,14.50
2011,08,11,23,06,14.40
2011,08,11,23,07,14.40
2011,08,11,23,08,14.40
2011,08,11,23,09,14.30
2011,08,11,23,10,14.30
2011,08,11,23,11,14.30
2011,08,11,23,12,14.30
2011,08,11,23,13,14.30
2011,08,11,23,14,14.20
2011,08,11,23,15,14.20
2011,08,11,23,16,14.20
2011,08,11,23,17,14.20
2011,08,11,23,18,14.20
2011,08,11,23,19,14.20
2011,08,11,23,20,14.20
2011,08,11,23,21,14.20
2011,08,11,23,22,14.20
2011,08,11,23,23,14.20
2011,08,11,23,24,14.20
2011,08,11,23,25,14.20
2011,08,11,23,26,14.20
2011,08,11,23,27,14.20
2011,08,11,23,28,14.20
2011,08,11,23,29,14.20
2011,08,11,23,30,14.10
2011,08,11,23,31,14.10
2011,08,11,23,32,14.10
2011,08,11,23,33,14.10
2011,08,11,23,34,14.10
2011,08,11,23,35,14.00
2011,08,11,23,36,14.00
2011,08,11,23,37,13.90
2011,08,11,23,38,13.90
2011,08,11,23,39,13.90
2011,08,11,23,40,13.90
2011,08,11,23,41,13.90
2011,08,11,23,42,13.90
2011,08,11,23,43,13.80
2011,08,11,23,44,13.80
2011,08,11,23,45,13.80
2011,08,11,23,46,13.80
2011,08,11,23,47,13.80
2011,08,11,23,48,13.80
2011,08,11,23,49,13.80
2011,08,11,23,50,13.80
2011,08,11,23,51,13.80
2011,08,11,23,52,13.80
2011,08,11,23,53,13.80
2011,08,11,23,54,13.80
2011,08,11,23,55,13.80
2011,08,11,23,56,13.80
2011,08,11,23,57,13.80
2011,08,11,23,58,13.80
2011,08,11,23,59,13.80
